User: anonymous   Login
Location: Unspecified
(0.0000°N, 0.0000°E)
Time: 09:23:40
(UTC+02:00)
Language:

Cosmos 1733 Rocket - Orbit

View from above orbital plane
View from above orbital plane
View from above satellite
View from above satellite

Ground track
Ground track

The orbit data is extracted from the following two-line orbital elements,

1 16612U 86018B   15211.10366308  .00000172  00000-0  17850-4 0  9991
2 16612 082.5147 221.9223 0016179 263.2691 156.5582 14.83954045489409
Epoch (UTC): 30 July 2015 02:29:16
Eccentricity: 0.0016179
inclination: 82.5147°
perigee height: 605 km
apogee height: 628 km
right ascension of ascending node: 221.9223°
argument of perigee: 263.2691°
revolutions per day: 14.83954045
mean anomaly at epoch: 156.5582°
orbit number at epoch: 48940

The dashed part of the orbit path shows where the satellite is in the earth's shadow,  

DLR